This is the latest recevied weather packets stored in our database for station/object SP1BMW-13. If no packets are shown the sender has not sent any weather packets the latest 10 day(s).
| Time | Temp. | Humidity | Pressure | Rain* | Wind** | Luminosity | Snow |
|---|---|---|---|---|---|---|---|
| 1777160145 | 6.11° C | 78% | 1013.3 hPa | 0 mm | 1.34 m/s, 248° | 0 W/m² | - |
| 1777160086 | 6.11° C | 78% | 1013.3 hPa | 0 mm | 0.45 m/s, 201° | 0 W/m² | - |
| 1777160025 | 6.11° C | 78% | 1013.4 hPa | 0 mm | 0.89 m/s, 263° | 0 W/m² | - |
| 1777159965 | 6.11° C | 78% | 1013.3 hPa | 0 mm | 1.79 m/s, 247° | 0 W/m² | - |
| 1777159906 | 6.11° C | 78% | 1013.3 hPa | 0 mm | 1.34 m/s, 243° | 0 W/m² | - |
| 1777159846 | 6.11° C | 78% | 1013.4 hPa | 0 mm | 1.79 m/s, 275° | 0 W/m² | - |
| 1777159786 | 6.11° C | 78% | 1013.2 hPa | 0 mm | 0.89 m/s, 230° | 0 W/m² | - |
| 1777159726 | 6.11° C | 78% | 1013.5 hPa | 0 mm | 0.89 m/s, 221° | 0 W/m² | - |
| 1777159666 | 6.11° C | 78% | 1013.3 hPa | 0 mm | 1.79 m/s, 237° | 0 W/m² | - |
| 1777159606 | 6.11° C | 78% | 1013.2 hPa | 0 mm | 1.79 m/s, 280° | 0 W/m² | - |
| 1777159546 | 6.11° C | 78% | 1013.1 hPa | 0 mm | 1.34 m/s, 221° | 0 W/m² | - |
| 1777159486 | 6.11° C | 78% | 1013.2 hPa | 0 mm | 1.79 m/s, 282° | 0 W/m² | - |
| 1777159426 | 6.11° C | 78% | 1013.2 hPa | 0 mm | 2.68 m/s, 254° | 0 W/m² | - |
| 1777159366 | 6.11° C | 78% | 1013 hPa | 0 mm | 1.34 m/s, 279° | 0 W/m² | - |
| 1777159306 | 6.11° C | 78% | 1013 hPa | 0 mm | 2.68 m/s, 264° | 0 W/m² | - |
| 1777159246 | 6.11° C | 79% | 1013 hPa | 0 mm | 1.79 m/s, 291° | 0 W/m² | - |
| 1777159186 | 6.11° C | 79% | 1013.2 hPa | 0 mm | 1.79 m/s, 263° | 0 W/m² | - |
| 1777159126 | 6.11° C | 79% | 1013.1 hPa | 0 mm | 0.89 m/s, 228° | 0 W/m² | - |
| 1777159066 | 6.11° C | 79% | 1013 hPa | 0 mm | 0.89 m/s, 255° | 0 W/m² | - |
| 1777159006 | 6.11° C | 79% | 1013.1 hPa | 0 mm | 3.58 m/s, 250° | 0 W/m² | - |
| 1777158945 | 5.56° C | 80% | 1012.9 hPa | 0 mm | 1.34 m/s, 285° | 0 W/m² | - |
| 1777158886 | 5.56° C | 80% | 1012.9 hPa | 0 mm | 1.79 m/s, 283° | 0 W/m² | - |
| 1777158826 | 5.56° C | 80% | 1012.9 hPa | 0 mm | 1.79 m/s, 256° | 0 W/m² | - |
| 1777158766 | 5.56° C | 80% | 1012.8 hPa | 0 mm | 0.89 m/s, 298° | 0 W/m² | - |
| 1777158706 | 5.56° C | 80% | 1012.7 hPa | 0 mm | 1.79 m/s, 293° | 0 W/m² | - |
* Rain latest hour (hover to see other rain measurements)
** Current wind speed in m/s (hover to see current wind gust speed)